User: anonymous   Login
Location: Deer Lake
(49.1830°N, 57.4330°W)
Time: 23:59:00
(UTC-02:-30)
Language:

Cosmos 1707 - Orbit

View from above orbital plane
View from above orbital plane
View from above satellite
View from above satellite

Ground track
Ground track

The orbit data is extracted from the following two-line orbital elements,

1 16326U 85113A   17146.60699196 +.00000106 +00000-0 +41688-5 0  9990
2 16326 082.5133 229.5428 0011257 024.6647 335.5120 15.13268540713802
Epoch (UTC): 26 May 2017 14:34:04
Eccentricity: 0.0011257
inclination: 82.5133°
perigee height: 518 km
apogee height: 534 km
right ascension of ascending node: 229.5428°
argument of perigee: 24.6647°
revolutions per day: 15.13268540
mean anomaly at epoch: 335.5120°
orbit number at epoch: 71380

The dashed part of the orbit path shows where the satellite is in the earth's shadow,  

DLR